• Em Portugal
  • Lista de países
  • Para 7 dias
  • Temperatura da água
  • Mapas de satélite
  • Mapa do tempo
  • Widgets de tempo
  • user-avatar
    Iniciar Sessão

    Previsão horária em Tappita

    Hoje, 24 Fevereiro, Sábado

    Tempo Temperatura Precipitação Vento Pressão Humidade
    00:00 +25°C° 0 mm 1 m/s 736 mmHg 93%
    01:00 +24°C° 0 mm 1 m/s 736 mmHg 94%
    02:00 +24°C° 0 mm 1 m/s 736 mmHg 95%
    03:00 +24°C° 0 mm 1 m/s 736 mmHg 95%
    04:00 +24°C° 0 mm 1 m/s 736 mmHg 95%
    05:00 +21°C° 0 mm 0 m/s 736 mmHg 96%
    06:00 +24°C° 0 mm 1 m/s 736 mmHg 88%
    07:00 +26°C° 0 mm 1 m/s 737 mmHg 81%
    08:00 +27°C° 0 mm 1 m/s 737 mmHg 74%
    09:00 +29°C° 0 mm 1 m/s 737 mmHg 65%
    10:00 +31°C° 0 mm 1 m/s 737 mmHg 56%
    11:00 +34°C° 0 mm 2 m/s 737 mmHg 47%
    12:00 +34°C° 0,1 mm 2 m/s 736 mmHg 46%
    13:00 +35°C° 0,1 mm 2 m/s 736 mmHg 45%
    14:00 +35°C° 0,1 mm 2 m/s 735 mmHg 44%
    15:00 +34°C° 0,2 mm 2 m/s 735 mmHg 49%
    16:00 +32°C° 0,2 mm 1 m/s 735 mmHg 53%
    17:00 +31°C° 0,2 mm 1 m/s 735 mmHg 58%
    18:00 +30°C° 0 mm 1 m/s 736 mmHg 63%
    19:00 +28°C° 0 mm 1 m/s 736 mmHg 68%
    20:00 +27°C° 0 mm 1 m/s 737 mmHg 72%
    21:00 +27°C° 0 mm 1 m/s 737 mmHg 75%
    22:00 +26°C° 0 mm 1 m/s 737 mmHg 78%
    23:00 +26°C° 0 mm 1 m/s 737 mmHg 82%

    Amanhã, 25 Fevereiro, Domingo

    Tempo Temperatura Precipitação Vento Pressão Humidade
    00:00 +25°C° 0 mm 1 m/s 737 mmHg 84%
    01:00 +25°C° 0 mm 1 m/s 737 mmHg 86%
    02:00 +25°C° 0 mm 1 m/s 736 mmHg 88%
    03:00 +24°C° 0 mm 1 m/s 736 mmHg 90%
    04:00 +24°C° 0 mm 1 m/s 736 mmHg 91%
    05:00 +24°C° 0 mm 1 m/s 737 mmHg 92%
    06:00 +25°C° 0 mm 1 m/s 737 mmHg 88%
    07:00 +26°C° 0 mm 1 m/s 738 mmHg 83%
    08:00 +27°C° 0 mm 1 m/s 738 mmHg 79%
    09:00 +29°C° 0 mm 1 m/s 738 mmHg 69%
    10:00 +31°C° 0 mm 1 m/s 738 mmHg 59%
    11:00 +33°C° 0 mm 1 m/s 738 mmHg 49%
    12:00 +34°C° 0 mm 1 m/s 737 mmHg 46%
    13:00 +35°C° 0 mm 1 m/s 736 mmHg 43%
    14:00 +36°C° 0 mm 1 m/s 736 mmHg 39%
    15:00 +35°C° 0 mm 1 m/s 735 mmHg 44%
    16:00 +33°C° 0 mm 1 m/s 735 mmHg 50%
    17:00 +32°C° 0 mm 1 m/s 735 mmHg 55%
    18:00 +30°C° 0 mm 1 m/s 736 mmHg 61%
    19:00 +29°C° 0 mm 1 m/s 736 mmHg 67%
    20:00 +28°C° 0 mm 2 m/s 737 mmHg 73%
    21:00 +27°C° 0 mm 1 m/s 737 mmHg 77%
    22:00 +27°C° 0 mm 1 m/s 737 mmHg 80%
    23:00 +26°C° 0 mm 1 m/s 737 mmHg 84%

    Depois de amanhã, 26 Fevereiro, Segunda-feira

    Tempo Temperatura Precipitação Vento Pressão Humidade
    00:00 +26°C° 0 mm 1 m/s 736 mmHg 86%
    01:00 +25°C° 0 mm 1 m/s 736 mmHg 89%
    02:00 +23°C° 0 mm 0 m/s 735 mmHg 91%
    03:00 +23°C° 0 mm 0 m/s 736 mmHg 92%
    04:00 +22°C° 0 mm 0 m/s 736 mmHg 93%
    05:00 +22°C° 0 mm 0 m/s 736 mmHg 94%
    06:00 +24°C° 0 mm 0 m/s 736 mmHg 87%
    07:00 +25°C° 0 mm 0 m/s 737 mmHg 79%
    08:00 +28°C° 0 mm 1 m/s 738 mmHg 72%
    09:00 +31°C° 0 mm 1 m/s 737 mmHg 62%
    10:00 +33°C° 0 mm 1 m/s 737 mmHg 53%
    11:00 +36°C° 0 mm 1 m/s 737 mmHg 43%
    12:00 +36°C° 0,1 mm 1 m/s 736 mmHg 43%
    13:00 +36°C° 0,1 mm 1 m/s 735 mmHg 42%
    14:00 +36°C° 0,1 mm 1 m/s 735 mmHg 41%
    15:00 +34°C° 0,3 mm 1 m/s 735 mmHg 48%
    16:00 +33°C° 0,3 mm 1 m/s 735 mmHg 54%
    17:00 +31°C° 0,3 mm 2 m/s 735 mmHg 61%
    18:00 +30°C° 0,1 mm 2 m/s 735 mmHg 68%
    19:00 +29°C° 0,1 mm 2 m/s 736 mmHg 75%
    20:00 +27°C° 0,1 mm 2 m/s 737 mmHg 82%
    21:00 +27°C° 0,6 mm 1 m/s 737 mmHg 85%
    22:00 +26°C° 0,6 mm 1 m/s 737 mmHg 88%
    23:00 +26°C° 0,6 mm 1 m/s 737 mmHg 91%

    27 Fevereiro, Terça-feira

    Tempo Temperatura Precipitação Vento Pressão Humidade
    00:00 +25°C° 0,1 mm 1 m/s 737 mmHg 92%
    01:00 +25°C° 0,1 mm 1 m/s 736 mmHg 93%
    02:00 +25°C° 0,1 mm 1 m/s 736 mmHg 94%
    03:00 +25°C° 0,1 mm 1 m/s 736 mmHg 95%
    04:00 +25°C° 0,1 mm 1 m/s 736 mmHg 95%
    05:00 +24°C° 0,1 mm 1 m/s 736 mmHg 96%
    06:00 +26°C° 0 mm 1 m/s 737 mmHg 91%
    07:00 +27°C° 0 mm 1 m/s 737 mmHg 86%
    08:00 +28°C° 0 mm 1 m/s 738 mmHg 81%
    09:00 +29°C° 0 mm 1 m/s 738 mmHg 74%
    10:00 +30°C° 0 mm 1 m/s 738 mmHg 67%
    11:00 +32°C° 0 mm 1 m/s 737 mmHg 61%
    12:00 +33°C° 0,2 mm 1 m/s 737 mmHg 57%
    13:00 +33°C° 0,2 mm 1 m/s 736 mmHg 54%
    14:00 +34°C° 0,2 mm 1 m/s 735 mmHg 51%
    15:00 +33°C° 0,2 mm 1 m/s 735 mmHg 56%
    16:00 +32°C° 0,2 mm 2 m/s 736 mmHg 61%
    17:00 +31°C° 0,2 mm 2 m/s 736 mmHg 67%
    18:00 +29°C° 0,1 mm 2 m/s 736 mmHg 73%
    19:00 +28°C° 0,1 mm 1 m/s 737 mmHg 80%
    20:00 +27°C° 0,1 mm 1 m/s 737 mmHg 87%
    21:00 +26°C° 0 mm 1 m/s 737 mmHg 89%
    22:00 +26°C° 0 mm 1 m/s 738 mmHg 91%
    23:00 +25°C° 0 mm 1 m/s 738 mmHg 93%

    28 Fevereiro, Quarta-feira

    Tempo Temperatura Precipitação Vento Pressão Humidade
    00:00 +25°C° 0 mm 1 m/s 737 mmHg 94%
    01:00 +25°C° 0 mm 1 m/s 737 mmHg 95%
    02:00 +25°C° 0 mm 1 m/s 736 mmHg 96%
    03:00 +23°C° 0 mm 0 m/s 736 mmHg 97%
    04:00 +22°C° 0 mm 0 m/s 737 mmHg 97%
    05:00 +22°C° 0 mm 0 m/s 737 mmHg 97%
    06:00 +26°C° 0 mm 1 m/s 737 mmHg 90%
    07:00 +27°C° 0 mm 1 m/s 738 mmHg 83%
    08:00 +28°C° 0 mm 1 m/s 738 mmHg 76%
    09:00 +30°C° 0 mm 1 m/s 738 mmHg 67%
    10:00 +33°C° 0 mm 1 m/s 738 mmHg 59%
    11:00 +35°C° 0 mm 1 m/s 737 mmHg 50%
    12:00 +35°C° 0,3 mm 1 m/s 737 mmHg 50%
    13:00 +35°C° 0,3 mm 1 m/s 736 mmHg 50%
    14:00 +35°C° 0,3 mm 1 m/s 735 mmHg 51%
    15:00 +33°C° 1 mm 1 m/s 735 mmHg 57%
    16:00 +32°C° 1 mm 1 m/s 735 mmHg 64%
    17:00 +30°C° 1 mm 2 m/s 736 mmHg 71%
    18:00 +29°C° 0,3 mm 1 m/s 736 mmHg 78%
    19:00 +28°C° 0,3 mm 1 m/s 737 mmHg 85%
    20:00 +26°C° 0,3 mm 1 m/s 737 mmHg 92%
    21:00 +26°C° 0 mm 1 m/s 737 mmHg 93%
    22:00 +26°C° 0 mm 1 m/s 737 mmHg 94%
    23:00 +25°C° 0 mm 1 m/s 737 mmHg 95%

    1 Março, Quinta-feira

    Tempo Temperatura Precipitação Vento Pressão Humidade
    00:00 +25°C° 0 mm 1 m/s 737 mmHg 96%
    01:00 +25°C° 0 mm 1 m/s 737 mmHg 96%
    02:00 +25°C° 0 mm 1 m/s 737 mmHg 96%
    03:00 +25°C° 0,1 mm 1 m/s 737 mmHg 97%
    04:00 +24°C° 0,1 mm 1 m/s 737 mmHg 97%
    05:00 +22°C° 0,1 mm 0 m/s 737 mmHg 98%
    06:00 +25°C° 0 mm 1 m/s 738 mmHg 92%
    07:00 +27°C° 0 mm 1 m/s 738 mmHg 86%
    08:00 +28°C° 0 mm 1 m/s 738 mmHg 81%
    09:00 +30°C° 0 mm 1 m/s 738 mmHg 72%
    10:00 +31°C° 0 mm 1 m/s 738 mmHg 64%
    11:00 +33°C° 0 mm 1 m/s 738 mmHg 55%
    12:00 +33°C° 0,8 mm 1 m/s 737 mmHg 59%
    13:00 +33°C° 0,8 mm 1 m/s 736 mmHg 62%
    14:00 +32°C° 0,8 mm 1 m/s 735 mmHg 65%
    15:00 +31°C° 1,4 mm 1 m/s 736 mmHg 73%
    16:00 +29°C° 1,4 mm 1 m/s 736 mmHg 80%
    17:00 +28°C° 1,4 mm 1 m/s 736 mmHg 87%
    18:00 +27°C° 0,2 mm 1 m/s 737 mmHg 90%
    19:00 +26°C° 0,2 mm 1 m/s 737 mmHg 92%
    20:00 +25°C° 0,2 mm 1 m/s 738 mmHg 95%
    21:00 +25°C° 0 mm 1 m/s 738 mmHg 96%
    22:00 +25°C° 0 mm 1 m/s 738 mmHg 97%
    23:00 +25°C° 0 mm 1 m/s 738 mmHg 97%
    Mostrar mais